Simultaneous Nadir Overpasses (SNOs) Predictions

Prediction of SNOs between METOP-B and NOAA-19 Satellite Orbit:

Table of predicted SNOs for the next 14.0 days since TLE Epoch: 12/20/2013
Index Date (METOP-B) Time (METOP-B) Lat,Lon (METOP-B) SZA (METOP-B ) Date (NOAA-19) Time (NOAA-19) Lat,Lon (NOAA-19) SZA (NOAA-19 ) Distance(km) Time Diff (sec)
1 12/22/2013 13:01:35 -73.89, 159.41 82.72 12/22/2013 13:00:23 -73.92, 158.14 82.64 39.45 72
2 12/22/2013 13:52:19 73.65, -33.83 97.06 12/22/2013 13:51:20 73.64, -33.92 97.06 3.27 59
3 12/22/2013 14:43:02 -73.62, 133.44 82.97 12/22/2013 14:42:21 -73.63, 133.35 82.96 2.73 41
4 12/22/2013 15:33:42 73.58, -59.33 96.99 12/22/2013 15:33:23 73.58, -59.31 97.00 0.71 19
5 12/22/2013 16:24:25 -73.55, 107.94 83.04 12/22/2013 16:24:24 -73.57, 107.96 83.02 2.17 1
6 12/22/2013 17:15:04 73.56, -84.71 96.97 12/22/2013 17:15:27 73.58, -84.81 96.99 3.50 23
7 12/22/2013 18:05:47 -73.53, 82.55 83.06 12/22/2013 18:06:27 -73.52, 82.58 83.08 2.01 40
8 12/22/2013 18:56:27 73.49,-110.21 96.91 12/22/2013 18:57:30 73.52,-110.19 96.93 3.40 63
9 12/22/2013 19:47:15 -73.22, 56.50 83.36 12/22/2013 19:48:26 -73.27, 57.65 83.34 37.34 71
10 01/01/2014 16:17:16 -74.13, 111.08 82.92 01/01/2014 16:16:07 -74.12, 108.81 82.86 69.04 69
11 01/01/2014 17:08:05 73.65, -82.75 96.63 01/01/2014 17:07:03 73.67, -82.83 96.65 2.88 62
12 01/01/2014 17:58:48 -73.62, 84.50 83.41 01/01/2014 17:58:01 -73.63, 84.52 83.40 0.95 47
13 01/01/2014 18:49:27 73.63,-108.14 96.60 01/01/2014 18:49:06 73.61,-108.22 96.59 3.34 21
14 01/01/2014 19:40:10 -73.60, 59.11 83.44 01/01/2014 19:40:04 -73.58, 59.13 83.46 2.84 6
15 01/01/2014 20:30:50 73.56,-133.64 96.53 01/01/2014 20:31:09 73.56,-133.61 96.52 1.14 19
16 01/01/2014 21:21:32 -73.58, 33.73 83.46 01/01/2014 21:22:08 -73.57, 33.62 83.47 3.58 36
17 01/01/2014 22:12:12 73.54,-159.02 96.51 01/01/2014 22:13:13 73.55,-159.11 96.51 3.01 61
18 01/01/2014 23:02:56 -73.46, 8.11 83.58 01/01/2014 23:04:10 -73.47, 8.34 83.58 7.36 74




NCC Satellite Simultaneous Nadir Overpasses (SNOs) Prediction Service
